Theta_e
319 320 320 320 319 316 312 316 328 326 323 320 317 320 322 321 322 323 323 325 327 336 336 336 335 323 322 324 322 320 317 320 331 338 336 334 333 336 332 336 340 340 338 343
319 320 320 320 319 316 311 314 321 326 324 322 319 319 323 323 324 323 323 326 325 332 336 334 338 337 335 336 334 331 329 326 331 334 332 334 338 340 338 337 338 343 345 346
319 320 321 321 320 316 313 317 332 328 320 318 324 323 322 326 327 326 324 325 327 329 336 333 337 338 337 336 338 348 328 328 329 332 335 337 337 339 338 338 342 345 348 342
319 320 321 321 321 315 317 320 330 331 332 331 330 326 323 326 325 325 323 323 324 328 338 339 340 340 338 336 337 334 326 336 337 336 339 338 338 338 340 338 342 341 339 343
319 320 321 321 321 316 318 324 325 325 327 329 332 326 326 326 326 327 326 326 327 336 338 336 336 340 339 336 334 334 328 339 339 341 341 341 339 338 338 339 343 337 340 341
321 320 320 320 320 319 314 315 320 322 328 333 335 335 334 335 331 328 330 330 336 336 336 335 334 334 336 336 337 336 332 331 337 343 342 337 337 335 339 340 339 344 345 341
320 321 320 319 319 316 315 316 317 322 329 335 339 335 333 334 332 332 333 331 331 335 332 331 330 330 330 332 332 330 335 334 334 342 337 341 334 335 336 336 340 341 341 339
320 320 320 319 319 318 316 317 316 319 322 330 332 330 332 332 331 332 330 330 329 330 332 331 332 333 331 333 332 332 329 330 332 341 338 332 331 336 336 332 333 339 341 335
319 319 318 318 319 320 319 319 318 317 321 327 325 327 329 332 333 332 332 329 327 327 330 330 334 337 335 336 334 330 329 327 329 330 334 336 329 329 333 328 334 334 335 333
317 318 316 316 318 319 318 319 319 321 320 318 320 325 329 330 331 332 331 330 329 326 328 332 328 330 331 332 334 333 331 332 334 331 333 333 332 331 327 330 332 331 331 331
315 316 315 315 316 317 318 320 321 321 319 318 320 323 325 325 330 330 327 329 328 329 332 329 328 329 329 329 328 330 328 330 333 334 333 337 334 335 334 331 330 329 328 326
314 314 314 314 315 316 317 318 320 319 318 318 321 321 320 321 322 328 328 332 328 330 328 329 329 332 327 327 330 327 327 327 334 336 336 331 333 334 329 327 329 328 326 324
314 314 314 314 314 315 315 317 318 319 318 318 317 320 322 323 323 323 326 325 328 329 325 328 328 329 324 327 329 329 331 330 335 332 334 331 330 330 329 328 327 325 323 321
314 314 314 313 314 315 315 316 318 317 318 320 320 323 319 323 324 324 326 324 322 324 326 325 324 324 320 322 325 327 327 331 329 333 332 331 330 329 326 325 323 323 321 320
314 315 314 313 314 315 317 318 319 318 319 319 317 319 323 325 324 324 323 320 317 318 320 320 322 320 321 321 324 325 326 325 326 331 331 329 330 327 326 325 323 321 320 318
314 314 314 314 315 316 318 320 317 316 316 316 320 319 320 321 322 322 322 319 319 317 320 321 321 320 322 325 324 322 329 329 330 334 331 329 329 328 328 326 323 321 319 316
314 314 314 315 315 315 316 321 321 318 319 319 322 322 321 322 320 317 317 319 318 318 319 320 320 321 321 321 324 324 329 327 327 327 326 329 330 331 327 325 322 321 318 315
313 315 315 316 316 316 317 320 320 319 317 318 324 324 321 322 319 319 317 320 320 320 319 319 322 321 322 326 323 328 329 326 325 327 327 325 326 323 322 321 319 316 314 314
314 315 316 316 316 316 322 320 318 318 322 325 325 323 325 320 320 319 321 319 322 320 321 320 323 325 325 323 325 327 327 328 327 326 326 328 327 323 322 320 317 314 313 312
315 315 318 318 321 321 320 318 319 319 319 318 322 321 325 323 322 321 326 322 323 327 326 326 323 323 328 330 325 325 325 325 326 328 330 329 328 325 323 321 319 316 315 314
318 317 319 317 318 318 319 323 324 326 329 323 323 321 321 319 326 324 323 327 329 331 327 330 331 339 340 332 329 328 326 326 326 328 327 325 327 327 325 324 322 321 320 315
314 313 314 315 320 320 327 326 326 328 330 329 327 326 322 322 326 328 327 330 327 335 332 335 342 340 334 331 331 329 326 326 327 328 327 327 327 328 327 326 324 322 320 318
314 315 319 325 321 323 327 329 326 326 325 327 325 326 326 323 323 327 330 331 332 329 331 335 341 336 330 328 328 327 325 326 327 328 330 330 329 328 328 326 325 323 321 318
316 322 317 325 325 325 325 324 325 327 327 325 326 324 323 323 324 327 332 330 330 334 334 333 334 331 330 330 328 328 327 327 326 328 330 329 326 324 324 323 323 323 322 321
320 322 322 324 323 323 322 322 323 326 325 324 326 327 324 326 327 327 329 332 333 333 336 334 331 330 329 329 328 326 326 328 327 328 327 326 326 325 324 325 325 323 321 322
319 322 323 323 324 324 322 322 326 324 327 323 323 325 326 326 327 329 332 331 334 332 332 331 332 332 329 327 325 325 328 326 326 327 328 327 327 327 327 326 324 323 322 321
319 320 318 320 320 323 324 324 323 323 324 326 324 327 328 324 327 329 327 330 326 329 330 330 330 329 327 325 325 325 325 328 327 327 325 326 325 323 322 323 324 326 326 323
Wind_Speed
27 30 33 35 40 47 24 7 2 18 29 3 1 3 5 5 9 7 7 6 2 4 3 2 2 6 5 7 14 9 9 6 3 4 1 8 7 4 6 5 2 1 2 5
26 28 31 33 37 39 14 3 3 18 5 1 2 6 7 5 14 12 5 3 4 3 6 5 1 4 6 17 7 5 5 1 4 3 6 4 8 2 6 8 4 3 5 5
25 27 29 32 35 36 2 1 4 4 3 2 1 5 8 5 5 10 5 3 4 4 1 4 5 6 5 10 7 9 8 4 6 6 5 3 4 3 5 6 4 5 5 5
24 25 27 31 34 31 2 2 2 1 3 4 6 4 6 15 9 5 7 4 1 4 3 4 2 5 5 5 13 7 6 5 5 6 6 3 3 4 6 4 6 6 6 7
23 23 25 29 33 25 6 3 4 5 3 5 6 3 4 5 14 2 8 4 5 5 7 7 8 6 2 5 7 5 8 3 3 1 3 4 5 10 9 7 9 5 6 10
22 22 23 25 30 27 6 7 5 3 4 5 5 4 8 16 7 4 1 5 6 6 6 3 4 4 2 6 5 2 5 6 3 4 3 4 5 6 4 4 8 8 5 7
20 21 21 20 23 24 11 5 3 2 4 2 4 9 11 16 14 3 2 10 6 3 10 6 8 8 8 7 6 3 5 4 3 2 2 1 8 4 8 3 9 8 4 7
18 20 20 19 19 21 21 6 2 1 4 4 10 17 12 9 9 7 4 5 6 12 4 5 5 5 6 4 6 2 6 5 3 5 4 5 2 5 7 5 5 5 14 10
17 18 17 18 17 20 23 7 4 2 2 4 6 5 6 4 5 8 7 7 4 6 3 3 4 3 5 3 4 3 4 6 5 3 2 4 5 5 8 5 3 2 16 17
16 17 15 16 16 17 21 7 7 3 1 4 3 3 4 4 4 2 4 7 8 5 2 2 3 4 5 4 6 4 2 1 4 3 3 3 2 6 4 5 6 5 7 12
14 13 14 15 15 16 18 9 7 6 2 7 5 2 1 4 2 1 5 3 5 5 5 2 3 2 1 4 1 6 5 5 2 2 3 2 2 4 2 5 4 9 7 5
12 13 14 14 13 14 13 5 10 14 5 7 19 29 37 20 23 4 2 7 3 3 3 2 1 3 3 2 1 5 2 5 5 6 5 6 4 7 7 10 13 5 9 6
13 13 14 13 13 12 12 11 15 7 2 6 3 7 19 20 27 24 2 2 3 4 4 3 2 4 3 2 2 3 6 2 4 5 4 5 8 5 5 7 11 8 7 7
13 13 13 13 13 12 12 11 10 8 5 2 6 13 9 5 20 20 21 4 5 1 3 2 1 1 2 3 3 3 5 3 4 1 4 7 5 8 13 12 12 12 8 8
12 13 14 13 13 13 15 18 8 2 2 2 5 22 8 10 13 7 2 5 3 1 2 2 2 2 2 2 3 3 1 5 3 5 6 5 6 7 14 15 11 11 13 8
12 13 13 12 13 14 6 2 5 8 1 1 4 6 6 3 13 9 2 1 1 2 4 3 3 3 4 3 2 5 2 4 4 5 5 6 10 11 6 12 11 8 10 13
13 13 13 12 12 12 4 4 3 6 14 2 4 5 5 7 4 3 1 2 2 3 1 1 2 3 4 3 2 4 5 6 7 5 9 8 6 6 8 13 13 20 17 19
15 14 14 14 13 15 9 4 6 11 4 1 2 4 5 1 0 1 1 0 3 3 3 2 1 3 3 1 4 5 3 7 7 5 4 6 9 10 8 15 15 10 9 9
15 15 16 7 3 3 3 2 2 4 2 2 1 2 3 4 1 2 3 2 1 2 3 2 4 1 2 7 6 7 7 6 7 7 8 12 13 11 9 10 9 9 8 8
14 8 2 2 3 3 3 1 2 2 1 0 3 2 3 2 1 2 1 1 3 0 5 2 3 3 4 5 9 8 7 7 7 6 4 6 7 12 9 10 9 8 9 13
3 3 2 6 3 2 0 1 2 2 2 3 4 6 3 2 1 4 2 3 1 1 4 5 1 2 2 2 6 5 6 7 6 3 4 9 11 10 9 7 10 12 13 16
8 11 9 5 2 0 1 3 2 3 4 3 4 5 5 3 2 2 3 1 3 2 3 2 3 2 1 5 5 5 6 7 8 9 5 8 11 14 12 9 12 15 15 20
2 2 2 1 1 1 4 3 3 2 3 2 0 1 2 3 3 2 2 3 2 1 3 0 2 1 2 3 4 7 6 10 10 7 14 18 13 14 15 9 10 12 12 17
2 1 3 3 4 4 3 3 3 3 3 4 4 2 2 1 3 1 2 2 2 2 1 2 2 3 3 5 5 9 8 8 8 6 7 11 13 12 14 14 11 8 9 12
2 2 3 4 3 3 3 4 2 3 1 3 3 3 2 2 2 1 1 0 2 1 1 2 1 2 6 6 5 7 7 7 7 9 3 4 9 12 12 12 11 10 11 12
2 3 2 4 1 4 4 3 3 2 4 3 3 2 4 3 2 2 4 3 2 2 1 2 3 3 5 4 5 5 7 7 7 9 9 10 10 5 3 8 12 16 17 17
3 3 3 6 2 0 3 4 5 6 3 2 3 3 3 1 1 2 4 2 3 2 2 2 4 4 3 2 0 3 4 3 2 1 2 3 4 6 8 6 12 12 18 22
Wind_Direction
346 348 350 352 353 348 354 343 10 167 148 77 176 196 217 282 293 296 274 231 93 120 196 79 142 210 274 288 202 174 195 146 105 158 226 77 98 121 118 106 293 9 142 269
347 348 350 351 355 355 337 336 269 178 225 164 292 296 288 265 276 277 276 323 49 127 198 116 80 12 334 25 59 145 190 44 91 15 338 345 80 342 136 89 97 206 154 258
347 349 351 351 356 347 278 15 5 326 24 124 44 315 284 258 276 276 221 232 62 73 51 2 184 50 350 340 24 20 89 65 136 170 174 171 72 110 79 109 137 170 225 234
346 349 353 353 359 352 113 148 296 195 308 325 326 253 265 283 294 310 356 359 141 116 92 5 45 75 350 307 344 40 82 84 78 49 91 11 122 170 164 153 161 163 223 231
344 349 355 357 0 3 3 42 31 341 279 294 293 350 356 284 282 171 314 5 21 96 151 186 212 125 156 243 328 62 353 127 99 35 246 181 186 188 204 189 179 262 183 222
341 349 354 1 1 15 5 344 330 114 275 322 346 339 306 324 291 348 304 254 113 98 177 154 49 67 238 168 156 76 99 125 95 241 9 299 357 228 156 181 190 169 161 208
339 346 352 359 4 9 358 302 308 21 289 308 336 312 332 338 326 95 338 78 83 7 119 81 43 35 4 359 267 161 121 83 115 195 3 44 236 94 158 162 160 202 94 134
334 342 347 352 357 355 349 314 296 24 306 324 310 339 342 331 353 355 76 16 128 162 85 71 58 350 13 299 269 330 101 133 132 150 187 276 293 161 174 156 332 179 138 122
329 336 343 345 350 347 350 342 324 289 100 246 325 302 337 349 332 352 354 338 322 135 98 75 128 174 220 254 295 40 64 111 129 108 173 212 249 329 143 103 11 149 141 148
322 328 340 344 347 346 345 304 3 322 278 269 55 335 313 328 340 316 313 330 344 43 87 86 174 216 201 167 166 181 104 326 179 185 189 276 268 297 121 120 213 128 145 156
321 329 338 339 346 349 349 321 45 13 278 276 241 263 226 354 40 85 285 33 357 11 46 115 255 124 284 61 307 156 158 138 208 77 91 250 260 359 100 183 40 98 91 102
328 328 330 333 339 343 350 306 322 331 204 251 286 272 274 237 231 173 321 179 228 228 52 353 317 32 34 177 23 340 13 183 179 162 208 232 311 132 120 129 123 122 117 125
322 324 327 324 329 335 335 313 325 336 302 302 325 251 273 260 241 233 92 283 207 2 172 175 247 73 113 78 263 35 328 93 109 71 307 135 107 66 98 135 120 125 117 128
322 324 327 321 320 322 317 302 282 299 271 280 282 334 311 283 225 219 223 213 20 35 88 146 155 134 151 204 204 140 211 45 139 5 64 72 27 117 124 106 105 102 89 98
325 327 323 318 318 316 310 295 290 203 229 249 282 311 292 221 183 154 71 86 105 94 344 67 236 238 81 346 66 349 317 193 137 213 202 140 179 162 137 128 131 125 117 102
319 318 317 318 321 325 331 3 123 83 127 65 311 296 303 164 143 145 149 151 113 121 146 217 272 269 111 100 166 261 324 45 160 161 169 140 149 154 145 133 141 134 131 136
310 307 310 314 314 310 238 238 146 224 345 64 312 312 271 184 103 11 15 25 196 129 151 218 198 300 85 100 149 269 117 96 58 102 93 74 144 151 137 132 129 137 146 147
310 307 308 304 299 289 286 272 253 245 225 134 261 272 343 65 68 343 147 124 18 341 186 16 124 345 70 107 246 164 154 110 91 82 114 147 125 116 122 129 132 128 138 150
311 306 305 293 225 233 261 197 134 162 191 205 256 221 261 350 331 205 345 102 82 293 173 232 107 317 177 215 164 164 178 160 165 110 111 130 140 144 141 138 147 149 171 172
304 303 296 291 264 237 169 161 31 13 287 41 225 257 269 69 6 281 93 24 198 191 240 102 115 237 278 272 183 164 149 145 127 100 94 120 143 162 168 176 172 169 181 188
348 329 263 319 273 273 324 238 170 183 247 210 231 198 214 294 147 223 177 196 188 118 272 129 211 349 320 23 96 117 97 80 55 96 192 165 171 175 173 182 184 179 183 181
322 295 298 296 282 19 226 239 252 181 231 209 194 215 188 261 138 92 338 134 35 268 313 122 105 254 233 93 89 86 69 47 19 357 290 204 171 181 181 179 179 180 175 184
301 246 274 258 242 37 204 223 262 254 251 268 191 18 145 6 42 52 48 64 247 346 21 344 157 176 62 75 47 64 52 54 43 35 87 101 97 113 128 131 186 188 184 186
260 161 324 190 242 229 194 265 268 298 11 353 88 12 92 331 57 113 67 263 64 357 284 233 229 198 91 56 64 65 41 34 35 63 105 118 121 124 128 130 135 144 199 209
263 168 228 233 268 269 273 263 333 258 220 62 24 6 55 23 81 57 95 158 261 198 353 215 213 234 97 76 60 57 50 44 40 26 15 188 171 173 179 188 193 207 204 202
257 238 273 275 9 324 339 327 310 322 359 48 54 99 43 355 18 324 216 159 55 293 186 167 156 95 71 63 48 50 62 79 67 57 48 37 38 25 261 251 235 221 225 229
276 265 265 247 263 198 308 350 342 324 84 87 80 78 214 346 226 215 31 67 264 247 115 159 144 130 123 124 132 273 278 222 201 246 329 315 319 315 330 334 307 299 267 248